This is the latest recevied weather packets stored in our database for station/object SP2WPY-13. If no packets are shown the sender has not sent any weather packets the latest 10 day(s).
| Time | Temp. | Humidity | Pressure | Rain* | Wind** | Luminosity | Snow |
|---|---|---|---|---|---|---|---|
| 1777013130 | 13.33° C | 61% | 1015.8 hPa | - | - | - | - |
| 1777012810 | 13.33° C | 60% | 1015.8 hPa | - | - | - | - |
| 1777012537 | 13.89° C | 60% | 1015.8 hPa | - | - | - | - |
| 1777012217 | 13.89° C | 60% | 1015.8 hPa | - | - | - | - |
| 1777011942 | 13.89° C | 62% | 1015.8 hPa | - | - | - | - |
| 1777011623 | 13.33° C | 64% | 1015.8 hPa | - | - | - | - |
| 1777011303 | 12.78° C | 65% | 1015.9 hPa | - | - | - | - |
| 1777011029 | 12.78° C | 65% | 1015.9 hPa | - | - | - | - |
| 1777010709 | 12.22° C | 68% | 1015.8 hPa | - | - | - | - |
| 1777010435 | 11.67° C | 69% | 1015.8 hPa | - | - | - | - |
| 1777010116 | 11.67° C | 70% | 1015.8 hPa | - | - | - | - |
| 1777009841 | 11.67° C | 70% | 1015.8 hPa | - | - | - | - |
| 1777009522 | 11.67° C | 70% | 1015.7 hPa | - | - | - | - |
| 1777009203 | 11.67° C | 73% | 1015.8 hPa | - | - | - | - |
| 1777008928 | 11.11° C | 75% | 1015.8 hPa | - | - | - | - |
| 1777008609 | 10.56° C | 76% | 1015.9 hPa | - | - | - | - |
| 1777008335 | 10° C | 77% | 1016 hPa | - | - | - | - |
| 1777008015 | 10.56° C | 77% | 1016 hPa | - | - | - | - |
| 1777007740 | 10° C | 83% | 1016 hPa | - | - | - | - |
| 1777007421 | 8.89° C | 83% | 1016 hPa | - | - | - | - |
| 1777007101 | 8.89° C | 84% | 1016 hPa | - | - | - | - |
| 1777006827 | 8.89° C | 85% | 1015.9 hPa | - | - | - | - |
| 1777006507 | 8.33° C | 86% | 1015.9 hPa | - | - | - | - |
| 1777006235 | 8.33° C | 87% | 1015.8 hPa | - | - | - | - |
| 1777005914 | 8.33° C | 89% | 1015.8 hPa | - | - | - | - |
* Rain since midnight (hover to see other rain measurements)
** Current wind speed in m/s (hover to see current wind gust speed)